TimeMST,TemperatureF,Dew PointF,Humidity,Sea Level PressureIn,VisibilityMPH,Wind Direction,Wind SpeedMPH,Gust SpeedMPH,PrecipitationIn,Events,Conditions,WindDirDegrees,DateUTC
12:15 AM,50.0,12.2,22,30.04,10.0,West,17.3,-,N/A,,Clear,260,2014-01-20 07:15:00
12:35 AM,50.0,12.2,22,30.03,10.0,West,17.3,-,N/A,,Clear,270,2014-01-20 07:35:00
12:55 AM,48.2,12.2,24,30.03,10.0,West,11.5,-,N/A,,Clear,260,2014-01-20 07:55:00
1:15 AM,46.4,12.2,25,30.03,10.0,West,11.5,-,N/A,,Clear,270,2014-01-20 08:15:00
1:35 AM,48.2,12.2,24,30.03,10.0,West,13.8,-,N/A,,Clear,260,2014-01-20 08:35:00
1:55 AM,48.2,12.2,24,30.03,10.0,West,11.5,-,N/A,,Clear,270,2014-01-20 08:55:00
2:15 AM,41.0,12.2,31,30.01,10.0,West,12.7,-,N/A,,Clear,270,2014-01-20 09:15:00
2:35 AM,41.0,10.4,29,30.02,10.0,West,11.5,-,N/A,,Clear,280,2014-01-20 09:35:00
2:55 AM,42.8,10.4,27,30.02,10.0,West,15.0,-,N/A,,Clear,270,2014-01-20 09:55:00
3:15 AM,44.6,10.4,25,30.02,10.0,West,12.7,-,N/A,,Clear,260,2014-01-20 10:15:00
3:35 AM,44.6,10.4,25,30.02,10.0,West,11.5,-,N/A,,Clear,270,2014-01-20 10:35:00
3:55 AM,44.6,10.4,25,30.03,10.0,West,10.4,-,N/A,,Clear,270,2014-01-20 10:55:00
4:15 AM,41.0,10.4,29,30.03,10.0,WNW,6.9,-,N/A,,Clear,290,2014-01-20 11:15:00
4:35 AM,39.2,10.4,31,30.03,10.0,NNW,8.1,-,N/A,,Clear,330,2014-01-20 11:35:00
4:55 AM,33.8,10.4,38,30.03,10.0,NW,6.9,-,N/A,,Clear,320,2014-01-20 11:55:00
5:15 AM,32.0,10.4,41,30.03,10.0,NNE,6.9,-,N/A,,Clear,30,2014-01-20 12:15:00
5:35 AM,32.0,10.4,41,30.04,10.0,NNW,5.8,-,N/A,,Clear,340,2014-01-20 12:35:00
5:55 AM,32.0,10.4,41,30.04,10.0,WSW,4.6,-,N/A,,Clear,250,2014-01-20 12:55:00
6:15 AM,32.0,10.4,41,30.05,10.0,SSW,3.5,-,N/A,,Clear,200,2014-01-20 13:15:00
6:35 AM,33.8,10.4,38,30.05,10.0,SW,5.8,-,N/A,,Clear,220,2014-01-20 13:35:00
6:55 AM,32.0,10.4,41,30.05,10.0,SW,6.9,-,N/A,,Clear,230,2014-01-20 13:55:00
7:15 AM,32.0,10.4,41,30.05,10.0,West,6.9,-,N/A,,Clear,270,2014-01-20 14:15:00
7:35 AM,32.0,10.4,41,30.06,10.0,Calm,Calm,-,N/A,,Clear,0,2014-01-20 14:35:00
7:55 AM,35.6,12.2,38,30.07,10.0,Calm,Calm,-,N/A,,Clear,0,2014-01-20 14:55:00
8:15 AM,42.8,12.2,29,30.07,10.0,Calm,Calm,-,N/A,,Clear,0,2014-01-20 15:15:00
8:35 AM,48.2,12.2,24,30.07,10.0,Calm,Calm,-,N/A,,Clear,0,2014-01-20 15:35:00
8:55 AM,50.0,14.0,24,30.08,10.0,Calm,Calm,-,N/A,,Clear,0,2014-01-20 15:55:00
9:15 AM,41.0,15.8,36,30.09,10.0,NNE,5.8,-,N/A,,Clear,30,2014-01-20 16:15:00
9:35 AM,39.2,14.0,36,30.10,10.0,North,4.6,-,N/A,,Clear,350,2014-01-20 16:35:00
9:55 AM,48.2,15.8,27,30.11,10.0,NNE,5.8,-,N/A,,Clear,30,2014-01-20 16:55:00
10:15 AM,51.8,15.8,24,30.11,10.0,NE,5.8,-,N/A,,Clear,40,2014-01-20 17:15:00
10:35 AM,55.4,15.8,21,30.12,10.0,NE,4.6,-,N/A,,Clear,50,2014-01-20 17:35:00
10:55 AM,57.2,15.8,20,30.11,10.0,ENE,5.8,-,N/A,,Clear,70,2014-01-20 17:55:00
11:15 AM,59.0,15.8,19,30.11,10.0,NE,8.1,-,N/A,,Clear,50,2014-01-20 18:15:00
11:35 AM,60.8,15.8,17,30.10,10.0,NNE,8.1,-,N/A,,Clear,20,2014-01-20 18:35:00
11:55 AM,62.6,15.8,16,30.09,10.0,NE,5.8,-,N/A,,Clear,40,2014-01-20 18:55:00
12:15 PM,68.0,12.2,12,30.07,10.0,North,20.7,25.3,N/A,,Clear,350,2014-01-20 19:15:00
12:35 PM,69.8,14.0,12,30.07,10.0,North,24.2,29.9,N/A,,Clear,360,2014-01-20 19:35:00
12:55 PM,69.8,10.4,10,30.07,10.0,North,20.7,34.5,N/A,,Clear,10,2014-01-20 19:55:00
1:15 PM,68.0,14.0,12,30.07,10.0,NNE,19.6,25.3,N/A,,Clear,20,2014-01-20 20:15:00
1:35 PM,68.0,14.0,12,30.08,10.0,North,21.9,28.8,N/A,,Clear,10,2014-01-20 20:35:00
1:55 PM,68.0,14.0,12,30.08,10.0,NNE,21.9,-,N/A,,Clear,20,2014-01-20 20:55:00
2:15 PM,68.0,14.0,12,30.09,10.0,North,20.7,26.5,N/A,,Clear,360,2014-01-20 21:15:00
2:35 PM,68.0,14.0,12,30.11,10.0,NNE,19.6,24.2,N/A,,Clear,20,2014-01-20 21:35:00
2:55 PM,68.0,12.2,12,30.11,10.0,North,20.7,24.2,N/A,,Clear,10,2014-01-20 21:55:00
3:15 PM,68.0,8.6,10,30.12,10.0,NNE,18.4,25.3,N/A,,Clear,20,2014-01-20 22:15:00
3:35 PM,68.0,8.6,10,30.14,10.0,NNE,18.4,25.3,N/A,,Clear,20,2014-01-20 22:35:00
3:55 PM,66.2,8.6,11,30.15,10.0,NNE,20.7,24.2,N/A,,Clear,30,2014-01-20 22:55:00
4:15 PM,64.4,8.6,11,30.16,10.0,NE,17.3,25.3,N/A,,Clear,40,2014-01-20 23:15:00
4:35 PM,64.4,6.8,10,30.18,10.0,NE,13.8,-,N/A,,Clear,40,2014-01-20 23:35:00
4:55 PM,60.8,8.6,13,30.19,10.0,NE,11.5,-,N/A,,Clear,40,2014-01-20 23:55:00
5:15 PM,57.2,8.6,14,30.21,10.0,NNE,11.5,-,N/A,,Clear,30,2014-01-21 00:15:00
5:35 PM,53.6,8.6,16,30.23,10.0,NNE,9.2,-,N/A,,Clear,30,2014-01-21 00:35:00
5:55 PM,50.0,8.6,19,30.25,10.0,North,8.1,-,N/A,,Clear,10,2014-01-21 00:55:00
6:15 PM,46.4,8.6,22,30.27,10.0,North,9.2,-,N/A,,Clear,10,2014-01-21 01:15:00
6:35 PM,46.4,8.6,22,30.29,10.0,North,8.1,-,N/A,,Clear,360,2014-01-21 01:35:00
6:55 PM,44.6,8.6,23,30.30,10.0,North,10.4,-,N/A,,Clear,360,2014-01-21 01:55:00
7:15 PM,44.6,10.4,25,30.32,10.0,North,10.4,-,N/A,,Clear,360,2014-01-21 02:15:00
7:35 PM,44.6,10.4,25,30.34,10.0,North,12.7,-,N/A,,Clear,10,2014-01-21 02:35:00
7:55 PM,44.6,10.4,25,30.36,10.0,North,9.2,-,N/A,,Clear,10,2014-01-21 02:55:00
8:15 PM,41.0,12.2,31,30.37,10.0,North,10.4,-,N/A,,Clear,360,2014-01-21 03:15:00
8:35 PM,41.0,12.2,31,30.38,10.0,North,11.5,-,N/A,,Clear,350,2014-01-21 03:35:00
8:55 PM,39.2,14.0,36,30.40,10.0,North,11.5,-,N/A,,Clear,350,2014-01-21 03:55:00
9:15 PM,41.0,14.0,33,30.41,10.0,North,13.8,-,N/A,,Clear,350,2014-01-21 04:15:00
9:35 PM,41.0,14.0,33,30.42,10.0,NNW,12.7,-,N/A,,Clear,340,2014-01-21 04:35:00
9:55 PM,41.0,14.0,33,30.44,10.0,NNW,10.4,-,N/A,,Clear,340,2014-01-21 04:55:00
10:15 PM,41.0,14.0,33,30.45,10.0,NW,11.5,-,N/A,,Clear,320,2014-01-21 05:15:00
10:35 PM,37.4,14.0,38,30.45,10.0,NNW,11.5,-,N/A,,Clear,330,2014-01-21 05:35:00
10:55 PM,35.6,14.0,41,30.46,10.0,NW,9.2,-,N/A,,Clear,320,2014-01-21 05:55:00
11:15 PM,37.4,14.0,38,30.46,10.0,NW,9.2,-,N/A,,Clear,320,2014-01-21 06:15:00
11:35 PM,35.6,14.0,41,30.47,10.0,WNW,10.4,-,N/A,,Clear,300,2014-01-21 06:35:00
11:55 PM,35.6,14.0,41,30.47,10.0,NW,11.5,-,N/A,,Clear,310,2014-01-21 06:55:00